Torna al catalogo

STARLINK-5136

AttivoComunicazioniVLEO
NORAD 56414·PAYLOAD·🇺🇸 United States

Lanciato May 4, 2023 da Cape Canaveral Space Force Station

Loading…

Prossimi Passaggi (prossime 24 ore)

TLE

AggiornatoSource: CelesTrak SupGP

Epoca: Sep 14, 2026, 21:41 UTC

1 56414C 23061AS  26257.90395833 -.00005956  00000+0 -21570-3 0  2575
2 56414  43.0002 198.5215 0001251 257.3880  29.7376 15.27584270    10

Traccia STARLINK-5136 in tempo reale con AllMySat

Download on the App Store